Location: Bittkow
(50.3000°N, 19.0000°E)
Time: 22:54:43
(UTC+00:00)

USA 234 - Pass Details

Date: 19 September 2020
Orbit: 1102 x 1106 km, 123.0° (Epoch: 16 October)

Event Time Altitude Azimuth Distance (km) Brightness Sun altitude
Rises 03:07:02 0° 161° (SSE) 3,905 6.2 -13.2°
Reaches altitude 10° 03:09:53 10° 172° (S) 2,951 5.4 -12.8°
Maximum altitude 03:15:26 29° 231° (SW) 1,885 4.0 -11.9°
Drops below altitude 10° 03:21:00 10° 290° (WNW) 2,965 5.0 -11.1°
Sets 03:23:53 0° 301° (WNW) 3,926 5.7 -10.6°
